GW4311 Weather Reports


time (UTC)temp
F
wind
direction
speed
knots
gust
knots
rain 1hr
in
rain 24hr
in
rain mn
in
humidity
%
barometer
mb
20260507161504 65 30 3.5 5.2 0.00 0.00 0.00 59 1013.8
20260507160005 66 19 1.7 7.0 0.00 0.00 0.00 57 1013.8
20260507154504 67 40 3.5 9.6 0.00 0.00 0.00 57 1013.9
20260507153003 67 51 2.6 8.7 0.00 0.00 0.00 57 1013.9
20260507151501 67 9 2.6 9.6 0.00 0.00 0.00 56 1014.0
20260507150100 66 319 1.7 7.8 0.00 0.00 0.00 58 1014.2
20260507144605 65 57 1.7 6.1 0.00 0.00 0.00 62 1014.2
20260507143110 65 9 3.5 7.8 0.00 0.00 0.00 60 1014.4
20260507141623 68 11 4.3 9.6 0.00 0.00 0.00 58 1014.5
20260507140056 66 171 0.9 5.2 0.00 0.00 0.00 56 1014.6
20260507134555 66 64 2.6 7.0 0.00 0.00 0.00 59 1014.8
20260507133056 65 55 2.6 7.0 0.00 0.00 0.00 62 1014.9
20260507131605 64 59 2.6 7.0 0.00 0.00 0.00 60 1015.1
20260507130051 64 309 1.7 7.8 0.00 0.00 0.00 62 1015.3
20260507124550 65 294 2.6 8.7 0.00 0.00 0.00 60 1015.2
20260507123104 65 330 6.1 9.6 0.00 0.00 0.00 63 1015.4
20260507121546 64 225 1.7 5.2 0.00 0.00 0.00 59 1015.5
20260507120044 63 16 4.3 8.7 0.00 0.00 0.00 63 1015.6
20260507114548 63 325 3.5 7.0 0.00 0.00 0.00 65 1015.6
20260507113042 63 334 0.9 6.1 0.00 0.00 0.00 62 1015.7
20260507111540 63 336 2.6 7.8 0.00 0.00 0.00 67 1015.8
20260507110037 62 162 2.6 7.8 0.00 0.00 0.00 70 1015.8
20260507104537 61 334 2.6 7.8 0.00 0.00 0.00 67 1016.0
20260507103032 61 304 7.0 10.4 0.00 0.00 0.00 71 1016.1
20260507101528 61 38 2.6 6.1 0.00 0.00 0.00 70 1015.9
20260507100032 60 342 3.5 9.6 0.00 0.00 0.00 72 1016.0
20260507094520 60 347 0.9 6.1 0.00 0.00 0.00 71 1016.2
20260507093015 59 265 1.7 8.7 0.00 0.00 0.00 69 1016.2
20260507091514 58 342 1.7 7.0 0.00 0.00 0.00 77 1016.1
20260507090008 58 282 2.6 5.2 0.00 0.00 0.00 77 1016.1
20260507084503 57 164 0.0 2.6 0.00 0.00 0.00 81 1016.1
20260507083100 56 115 1.7 4.3 0.00 0.00 0.00 80 1015.9
20260507081556 56 291 0.9 6.1 0.00 0.00 0.00 80 1016.1
20260507074546 54 41 2.6 6.1 0.00 0.01 0.00 87 1016.0
20260507073042 50 51 2.6 5.2 0.00 0.01 0.00 89 1016.0
20260507071538 49 9 1.7 5.2 0.00 0.01 0.00 90 1015.9
20260507070036 48 55 2.6 4.3 0.00 0.01 0.00 92 1015.8
20260507064546 46 24 1.7 5.2 0.00 0.01 0.00 95 1016.0
20260507063024 44 44 0.9 4.3 0.00 0.01 0.00 100 1015.8
20260507061519 42 65 0.9 3.5 0.00 0.01 0.00 100 1015.6
20260507060020 41 34 1.7 4.3 0.00 0.01 0.00 100 1015.7
20260507054514 40 325 0.0 3.5 0.00 0.02 0.00 100 1015.7
20260507053013 40 323 0.9 2.6 0.00 0.02 0.00 100 1015.7
20260507051510 40 265 0.0 1.7 0.00 0.02 0.00 99 1015.4
20260507050019 40 44 0.0 1.7 0.00 0.02 0.00 99 1015.2
20260507044504 40 9 0.9 1.7 0.00 0.02 0.00 98 1015.3
20260507043002 40 9 0.0 1.7 0.00 0.02 0.00 98 1015.0
20260507041600 40 51 0.9 1.7 0.00 0.02 0.00 98 1015.1
20260507040055 41 61 0.9 1.7 0.00 0.02 0.00 98 1015.1
20260507034552 42 93 0.0 1.7 0.00 0.02 0.00 98 1015.0
20260507033051 42 325 0.0 1.7 0.00 0.02 0.00 98 1014.9
20260507031548 43 93 0.0 1.7 0.00 0.02 0.00 98 1014.8
20260507030048 43 41 0.9 4.3 0.00 0.02 0.00 99 1014.8
20260507024547 43 336 1.7 2.6 0.00 0.02 0.00 100 1014.9
20260507023045 44 291 0.9 1.7 0.00 0.02 0.00 100 1014.9
20260507021544 44 9 0.9 1.7 0.00 0.02 0.00 100 1014.8
20260507020100 44 325 0.0 1.7 0.00 0.02 0.00 100 1014.7
20260507014546 44 334 0.0 0.9 0.00 0.02 0.00 100 1014.5
20260507013042 44 178 0.0 0.9 0.00 0.02 0.00 100 1014.5
20260507011541 43 309 0.0 0.9 0.00 0.02 0.00 100 1014.4
20260507010056 43 309 0.0 1.7 0.00 0.02 0.00 100 1014.6
20260507004537 43 309 0.0 1.7 0.00 0.02 0.00 99 1014.6
20260507003039 43 279 0.0 0.9 0.00 0.02 0.00 99 1014.6
20260507001535 43 93 0.0 0.9 0.00 0.02 0.00 99 1014.5
20260507000035 43 9 0.9 1.7 0.00 0.02 0.00 99 1014.4
20260506234533 43 178 0.0 0.9 0.00 0.02 0.00 98 1014.4
20260506233034 43 221 0.0 1.7 0.00 0.02 0.00 98 1014.5
20260506231530 43 309 0.0 1.7 0.00 0.02 0.00 97 1014.4
20260506230029 44 309 0.0 0.9 0.00 0.02 0.00 97 1014.4
20260506224525 44 137 0.9 1.7 0.00 0.02 0.00 96 1014.5
20260506223024 45 221 0.0 1.7 0.00 0.02 0.00 95 1014.4
20260506221520 46 279 0.0 1.7 0.00 0.02 0.00 94 1014.3
20260506220018 47 309 0.0 0.9 0.00 0.02 0.00 91 1014.1
20260506214514 48 57 0.9 1.7 0.00 0.02 0.02 89 1014.2
20260506213012 48 41 1.7 4.3 0.00 0.02 0.02 88 1014.1
20260506211510 49 41 0.9 3.5 0.00 0.02 0.02 88 1014.1
20260506210008 49 360 1.7 5.2 0.00 0.02 0.02 89 1013.9
20260506204507 49 329 3.5 6.1 0.00 0.02 0.02 90 1013.8
20260506203005 49 330 3.5 8.7 0.00 0.02 0.02 91 1013.7
20260506201509 50 298 2.6 6.1 0.00 0.02 0.02 93 1013.4
20260506200001 52 9 0.9 3.5 0.00 0.02 0.02 93 1013.4
20260506194600 53 334 0.0 1.7 0.00 0.02 0.02 90 1012.9
20260506193059 54 291 0.9 2.6 0.00 0.02 0.02 88 1012.8
20260506191608 55 301 0.0 3.5 0.00 0.02 0.02 86 1012.6
20260506190056 55 265 0.9 5.2 0.00 0.02 0.02 85 1012.5
20260506184608 56 275 2.6 6.1 0.00 0.02 0.02 84 1012.5
20260506183053 56 289 2.6 5.2 0.00 0.02 0.02 83 1012.4
20260506181550 56 249 2.6 6.1 0.00 0.02 0.02 82 1012.2
20260506180051 57 298 1.7 5.2 0.00 0.02 0.02 82 1012.0
20260506174549 57 316 1.7 6.1 0.00 0.02 0.02 80 1011.9
20260506173049 58 294 2.6 6.1 0.00 0.02 0.02 77 1011.7
20260506171556 59 310 4.3 7.8 0.00 0.02 0.02 74 1011.8
20260506170051 59 306 4.3 7.0 0.00 0.02 0.02 75 1011.7
20260506164548 59 334 2.6 6.1 0.00 0.02 0.02 76 1011.7
20260506163046 59 296 3.5 7.8 0.00 0.02 0.02 76 1011.8